EW6606 Weather Reports


time (UTC)temp
F
wind
direction
speed
knots
gust
knots
rain 1hr
in
rain 24hr
in
rain mn
in
humidity
%
barometer
mb
20260510190804 75 119 0.0 2.6 0.00 0.01 0.01 73 1017.5
20260510190301 75 246 0.0 2.6 0.00 0.01 0.01 77 1017.4
20260510185757 75 155 0.9 2.6 0.00 0.01 0.01 75 1017.6
20260510185255 75 117 1.7 2.6 0.00 0.01 0.01 74 1017.5
20260510184752 75 52 0.0 1.7 0.00 0.01 0.01 75 1017.7
20260510184248 75 122 0.0 2.6 0.00 0.01 0.01 76 1017.5
20260510183743 74 44 1.7 2.6 0.00 0.01 0.01 76 1017.8
20260510183238 74 70 1.7 4.3 0.00 0.01 0.01 74 1017.8
20260510182735 73 26 0.9 2.6 0.00 0.01 0.01 78 1017.9
20260510182231 73 204 1.7 2.6 0.00 0.01 0.01 81 1018.0
20260510181728 72 120 0.9 3.5 0.00 0.01 0.01 81 1017.9
20260510181225 72 155 1.7 3.5 0.00 0.01 0.01 81 1018.1
20260510180721 72 123 0.0 4.3 0.00 0.01 0.01 81 1018.1
20260510180219 73 126 2.6 5.2 0.00 0.01 0.01 81 1018.1
20260510175714 73 201 0.9 1.7 0.00 0.01 0.01 82 1017.9
20260510175211 73 171 0.9 1.7 0.00 0.01 0.01 84 1018.2
20260510174708 72 220 0.0 3.5 0.00 0.01 0.01 84 1018.3
20260510174205 71 1 1.7 2.6 0.00 0.01 0.01 87 1018.4
20260510173701 71 40 0.0 1.7 0.00 0.01 0.01 88 1018.4
20260510173157 70 170 1.7 2.6 0.00 0.01 0.01 88 1018.3
20260510172652 70 87 1.7 1.7 0.00 0.01 0.01 90 1018.5
20260510172149 70 344 1.7 1.7 0.00 0.01 0.01 89 1018.5
20260510171646 70 286 1.7 1.7 0.00 0.01 0.01 90 1018.7
20260510171143 69 70 1.7 1.7 0.00 0.01 0.01 91 1018.5
20260510170639 69 41 0.9 1.7 0.00 0.01 0.01 91 1018.7
20260510170136 69 47 0.9 1.7 0.00 0.01 0.01 92 1018.8
20260510165632 69 299 0.0 1.7 0.00 0.01 0.01 92 1018.9
20260510165128 69 65 0.9 1.7 0.00 0.01 0.01 92 1018.8
20260510164626 68 37 0.0 1.7 0.00 0.01 0.01 93 1018.9
20260510164122 68 59 0.0 0.9 0.00 0.01 0.01 93 1018.9
20260510163617 68 348 0.0 1.7 0.00 0.01 0.01 93 1018.9
20260510163114 68 37 0.9 1.7 0.00 0.01 0.01 94 1019.0
20260510162614 67 58 0.0 1.7 0.00 0.01 0.01 94 1018.8
20260510162110 67 55 0.0 1.7 0.00 0.01 0.01 94 1018.6
20260510161606 67 109 0.0 1.7 0.00 0.01 0.01 94 1018.6
20260510161104 67 55 0.0 0.9 0.00 0.01 0.01 94 1018.9
20260510160600 67 66 0.0 0.9 0.00 0.01 0.01 94 1018.9
20260510160100 66 154 0.0 1.7 0.00 0.01 0.01 94 1018.9
20260510155557 66 165 1.7 1.7 0.00 0.01 0.01 95 1018.8
20260510155053 66 153 0.9 1.7 0.00 0.01 0.01 95 1018.8
20260510154548 66 172 0.0 0.0 0.00 0.01 0.01 95 1018.8
20260510154044 66 135 0.0 1.7 0.00 0.01 0.01 95 1018.8
20260510153539 66 164 0.0 0.9 0.00 0.01 0.01 95 1018.9
20260510153036 66 9 0.0 0.0 0.00 0.01 0.01 96 1018.9
20260510152533 65 9 0.0 0.0 0.00 0.01 0.01 95 1018.8
20260510152029 65 15 0.0 1.7 0.00 0.01 0.01 96 1019.0
20260510151526 65 89 0.0 1.7 0.00 0.01 0.01 96 1018.8
20260510151024 65 96 0.9 0.9 0.00 0.01 0.01 96 1018.7
20260510150518 65 161 0.9 2.6 0.00 0.01 0.01 96 1018.7
20260510150015 65 130 0.0 1.7 0.00 0.01 0.01 96 1018.7
20260510145512 65 153 0.0 1.7 0.00 0.01 0.01 96 1018.6
20260510145008 65 157 0.0 0.0 0.00 0.01 0.01 96 1018.7
20260510144506 65 119 0.0 0.9 0.00 0.01 0.01 96 1018.7
20260510144002 65 49 0.0 0.9 0.00 0.01 0.01 96 1018.7
20260510143457 65 62 0.0 0.9 0.00 0.01 0.01 96 1018.7
20260510142954 65 50 0.0 0.9 0.00 0.01 0.01 96 1018.6
20260510142451 65 13 0.0 0.9 0.00 0.01 0.01 96 1018.5
20260510141947 65 41 0.9 1.7 0.00 0.01 0.01 96 1018.6
20260510141444 65 66 0.0 0.9 0.00 0.01 0.01 96 1018.7
20260510140941 64 51 0.0 1.7 0.00 0.01 0.01 96 1018.7
20260510140437 64 86 0.0 1.7 0.00 0.01 0.01 96 1018.7
20260510135936 64 125 0.9 1.7 0.00 0.01 0.01 96 1018.4
20260510135432 64 137 0.0 1.7 0.00 0.01 0.01 96 1018.5
20260510134930 64 142 0.0 0.9 0.00 0.01 0.01 96 1018.2
20260510134426 64 138 0.9 2.6 0.00 0.01 0.01 96 1018.2
20260510133922 64 124 0.0 1.7 0.00 0.01 0.01 96 1018.5
20260510133419 64 103 0.9 1.7 0.00 0.01 0.01 96 1018.2
20260510132914 63 104 0.9 1.7 0.00 0.01 0.01 96 1018.5
20260510132412 63 113 1.7 1.7 0.00 0.01 0.01 96 1018.4
20260510131909 63 122 0.0 1.7 0.00 0.01 0.01 96 1018.6
20260510131407 63 117 0.0 0.9 0.00 0.01 0.01 96 1018.4
20260510130903 63 108 0.9 1.7 0.00 0.01 0.01 96 1018.3
20260510130401 63 89 0.0 1.7 0.00 0.01 0.01 96 1018.1
20260510125857 63 105 0.9 1.7 0.00 0.01 0.01 96 1018.2
20260510125353 63 100 0.9 1.7 0.00 0.01 0.01 96 1018.0
20260510124850 63 100 0.9 1.7 0.00 0.01 0.01 96 1017.9
20260510124347 63 144 0.0 1.7 0.00 0.01 0.01 96 1018.1
20260510123842 63 133 0.0 1.7 0.00 0.01 0.01 96 1018.0
20260510123338 63 89 0.9 1.7 0.00 0.01 0.01 96 1017.9
20260510122834 62 103 0.0 1.7 0.00 0.01 0.01 96 1017.6
20260510122330 62 115 1.7 2.6 0.00 0.01 0.01 96 1017.6
20260510121827 62 114 0.0 1.7 0.00 0.01 0.01 96 1017.6
20260510121325 62 104 0.0 1.7 0.00 0.01 0.01 96 1017.6
20260510120822 62 147 0.0 1.7 0.00 0.01 0.01 96 1017.5
20260510120319 62 144 0.9 1.7 0.00 0.01 0.01 96 1017.5
20260510115814 62 146 0.0 1.7 0.02 0.01 0.01 96 1017.4
20260510115312 62 126 0.9 1.7 0.02 0.01 0.01 96 1017.2
20260510114813 62 132 0.9 1.7 0.00 0.00 0.00 96 1017.3
20260510114310 62 144 0.0 0.9 0.00 0.00 0.00 96 1017.3
20260510113805 62 151 1.7 1.7 0.00 0.00 0.00 96 1017.2
20260510113302 62 140 0.0 1.7 0.00 0.00 0.00 96 1017.2
20260510112758 62 140 1.7 1.7 0.00 0.00 0.00 96 1016.9
20260510112256 62 240 0.0 0.9 0.00 0.00 0.00 96 1016.6
20260510111751 61 42 0.0 1.7 0.00 0.00 0.00 95 1016.6
20260510111248 61 142 0.0 0.0 0.00 0.00 0.00 95 1016.4
20260510110748 61 124 0.0 1.7 0.00 0.00 0.00 95 1016.2
20260510110246 61 89 0.0 0.0 0.00 0.00 0.00 95 1016.4
20260510105746 61 113 0.0 1.7 0.00 0.00 0.00 95 1016.2
20260510105241 61 89 0.0 0.9 0.00 0.00 0.00 95 1016.0
20260510104737 61 104 0.0 0.9 0.00 0.00 0.00 95 1016.2
20260510104235 61 63 0.0 0.0 0.00 0.00 0.00 95 1016.0
20260510103732 61 160 0.0 0.9 0.00 0.00 0.00 95 1015.8
20260510103229 61 89 0.0 0.9 0.00 0.00 0.00 95 1015.8
20260510102728 61 122 0.0 1.7 0.00 0.00 0.00 95 1015.6
20260510102224 61 113 0.0 1.7 0.00 0.00 0.00 95 1015.6
20260510101722 61 108 0.9 1.7 0.00 0.00 0.00 95 1015.7
20260510101220 61 106 0.0 1.7 0.00 0.00 0.00 95 1015.6
20260510100716 61 92 0.0 0.9 0.00 0.00 0.00 95 1015.6
20260510100214 61 95 0.9 0.9 0.00 0.00 0.00 95 1015.6
20260510095704 61 104 0.9 0.9 0.00 0.00 0.00 95 1015.4
20260510095159 60 71 0.0 1.7 0.00 0.00 0.00 95 1015.5
20260510094657 60 103 0.9 1.7 0.00 0.00 0.00 95 1015.2
20260510094154 60 129 0.0 0.9 0.00 0.00 0.00 95 1015.2
20260510093650 60 85 0.0 0.9 0.00 0.00 0.00 95 1015.2
20260510093148 60 104 0.0 0.9 0.00 0.00 0.00 95 1015.1
20260510092644 60 73 0.0 0.9 0.00 0.00 0.00 95 1015.0
20260510092139 60 69 0.0 1.7 0.00 0.00 0.00 95 1014.9
20260510091635 60 81 0.0 1.7 0.00 0.00 0.00 94 1014.8
20260510091131 61 55 0.0 1.7 0.00 0.00 0.00 94 1015.0
20260510090628 61 89 0.0 1.7 0.00 0.00 0.00 94 1014.6
20260510090124 61 89 0.0 0.9 0.00 0.00 0.00 94 1014.5
20260510085614 61 73 0.9 1.7 0.00 0.00 0.00 94 1014.8
20260510085110 61 47 0.9 1.7 0.00 0.00 0.00 94 1014.5
20260510084607 61 69 0.0 1.7 0.00 0.00 0.00 94 1014.3
20260510084103 61 93 0.9 1.7 0.00 0.00 0.00 94 1014.5
20260510083600 62 94 0.9 1.7 0.00 0.00 0.00 94 1014.1
20260510083056 62 93 0.9 1.7 0.00 0.00 0.00 94 1014.1
20260510082553 62 68 0.9 1.7 0.00 0.00 0.00 94 1014.2
20260510082048 62 89 0.0 1.7 0.02 0.00 0.00 94 1014.1
20260510081543 62 114 0.0 1.7 0.00 0.00 0.00 94 1014.0
20260510081039 62 117 0.0 1.7 0.00 0.00 0.00 94 1014.2
20260510080538 62 126 0.9 1.7 0.00 0.00 0.00 94 1014.0
20260510080036 62 98 0.9 1.7 0.00 0.00 0.00 94 1014.3
20260510075533 62 89 0.0 1.7 0.00 0.00 0.00 94 1014.3
20260510075030 62 88 0.9 1.7 0.00 0.00 0.00 94 1014.1
20260510074528 62 89 0.0 1.7 0.00 0.00 0.00 94 1014.2
20260510074023 62 103 0.9 1.7 0.00 0.00 0.00 94 1014.2
20260510073519 62 117 0.0 0.9 0.00 0.00 0.00 94 1014.2
20260510073016 62 104 0.9 1.7 0.00 0.00 0.00 94 1014.1
20260510072513 62 89 0.0 0.9 0.00 0.00 0.00 94 1014.2
20260510072008 62 109 0.0 0.9 0.00 0.00 0.00 94 1014.1
20260510071504 62 62 0.0 0.9 0.00 0.00 0.00 94 1014.1
20260510071003 62 93 0.0 0.9 0.00 0.00 0.00 94 1014.3
20260510070459 62 101 0.9 1.7 0.00 0.00 0.00 94 1014.2
20260510065955 62 78 0.0 0.9 0.00 0.00 0.00 94 1014.2
20260510065453 62 66 0.0 0.9 0.00 0.00 0.00 94 1014.5
20260510064948 62 95 0.0 0.9 0.00 0.00 0.00 94 1014.3
20260510064446 62 120 0.9 1.7 0.00 0.00 0.00 94 1014.3
20260510063942 62 99 0.0 0.9 0.00 0.00 0.00 94 1014.4
20260510063438 62 89 0.0 0.9 0.00 0.00 0.00 94 1014.3
20260510062936 62 89 0.0 0.9 0.00 0.00 0.00 94 1014.6
20260510062431 62 103 0.0 1.7 0.00 0.00 0.00 93 1014.5
20260510061927 63 114 1.7 1.7 0.00 0.00 0.00 93 1014.4
20260510061424 63 128 0.9 1.7 0.00 0.00 0.00 93 1014.8
20260510060920 63 111 1.7 1.7 0.00 0.00 0.00 93 1014.8
20260510060417 63 113 0.0 1.7 0.00 0.00 0.00 93 1014.8
20260510055913 63 110 0.9 1.7 0.00 0.00 0.00 93 1014.8
20260510055408 63 124 0.0 0.9 0.00 0.00 0.00 93 1014.9
20260510054901 63 125 0.0 0.9 0.00 0.00 0.00 93 1015.0
20260510054356 64 129 0.0 0.9 0.00 0.00 0.00 93 1015.0
20260510053851 63 129 0.0 0.9 0.00 0.00 0.00 93 1014.8
20260510053347 64 116 0.9 0.9 0.00 0.00 0.00 93 1014.6
20260510052844 64 130 0.0 0.0 0.00 0.00 0.00 93 1014.8
20260510052339 64 118 0.0 0.9 0.00 0.00 0.00 93 1015.1
20260510051836 64 117 0.0 0.9 0.00 0.00 0.00 93 1015.0
20260510051333 64 129 0.0 1.7 0.00 0.00 0.00 93 1014.9
20260510050830 64 55 0.0 0.9 0.00 0.00 0.00 93 1014.9
20260510050326 64 44 0.0 0.9 0.00 0.00 0.00 93 1015.1
20260510045823 64 37 0.0 0.9 0.00 0.07 0.07 93 1015.2
20260510045320 64 37 0.9 1.7 0.00 0.07 0.07 93 1015.0
20260510044817 64 89 0.0 0.9 0.00 0.07 0.07 93 1015.1
20260510044314 64 104 0.0 1.7 0.00 0.07 0.07 93 1014.9
20260510043810 64 117 0.9 1.7 0.00 0.07 0.07 93 1014.9
20260510043306 64 113 0.0 0.9 0.00 0.07 0.07 93 1014.8
20260510042804 64 93 0.9 0.9 0.00 0.07 0.07 93 1014.9
20260510042300 64 113 0.9 1.7 0.00 0.07 0.07 93 1014.9
20260510041756 64 110 0.9 1.7 0.00 0.07 0.07 92 1014.9
20260510041254 65 86 0.9 1.7 0.00 0.07 0.07 92 1015.2
20260510040751 65 66 0.0 1.7 0.00 0.07 0.07 92 1015.2
20260510040248 65 104 0.0 0.9 0.00 0.07 0.07 93 1015.2
20260510035743 65 104 0.0 0.9 0.00 0.07 0.07 92 1015.2
20260510035239 65 117 0.0 0.9 0.00 0.07 0.07 92 1015.3
20260510034734 65 113 0.0 0.9 0.00 0.07 0.07 92 1015.2
20260510034232 65 113 0.9 0.9 0.00 0.07 0.07 92 1015.2
20260510033729 66 103 0.0 0.9 0.00 0.07 0.07 92 1015.3
20260510033226 66 113 0.0 0.9 0.00 0.07 0.07 92 1015.3
20260510032722 66 50 0.0 0.0 0.00 0.07 0.07 92 1015.1
20260510032218 66 113 0.0 0.0 0.00 0.07 0.07 92 1015.2
20260510031713 66 113 0.0 0.9 0.00 0.07 0.07 92 1015.3
20260510031210 66 111 0.9 1.7 0.00 0.07 0.07 92 1015.3
20260510030704 66 117 0.0 0.9 0.00 0.07 0.07 92 1015.4
20260510030202 66 123 0.0 0.9 0.00 0.07 0.07 92 1015.1
20260510025659 66 120 0.0 0.9 0.00 0.07 0.07 92 1015.2
20260510025156 66 137 0.0 1.7 0.00 0.07 0.07 92 1014.9
20260510024653 66 104 0.0 0.9 0.00 0.07 0.07 92 1015.1
20260510024149 67 120 0.0 0.9 0.00 0.07 0.07 92 1015.0
20260510023645 67 128 0.9 1.7 0.00 0.07 0.07 92 1015.1
20260510023143 67 125 1.7 1.7 0.00 0.07 0.07 92 1015.0
20260510022643 67 107 0.0 0.9 0.00 0.07 0.07 92 1014.9
20260510022138 67 101 0.0 1.7 0.00 0.07 0.07 92 1014.6
20260510021634 67 122 0.0 1.7 0.00 0.07 0.07 92 1014.6
20260510021132 67 108 0.9 0.9 0.00 0.07 0.07 92 1014.5
20260510020626 67 96 0.9 1.7 0.00 0.07 0.07 91 1014.6
20260510020122 67 120 1.7 1.7 0.00 0.07 0.07 91 1014.5
20260510015618 67 106 0.9 1.7 0.00 0.07 0.07 91 1014.4
20260510015114 67 122 0.9 1.7 0.00 0.07 0.07 91 1014.5
20260510014610 67 104 1.7 1.7 0.00 0.07 0.07 91 1014.2
20260510014108 67 89 0.0 1.7 0.00 0.07 0.07 91 1014.2
20260510013608 68 128 0.9 1.7 0.00 0.07 0.07 90 1014.0
20260510013104 68 105 0.0 1.7 0.00 0.07 0.07 90 1013.8
20260510012603 68 111 0.9 1.7 0.00 0.07 0.07 90 1013.8
20260510012100 68 121 0.9 1.7 0.00 0.07 0.07 90 1013.7
20260510011559 68 141 0.9 1.7 0.00 0.07 0.07 90 1013.6
20260510011056 68 119 0.9 1.7 0.00 0.07 0.07 90 1013.4
20260510010552 68 124 1.7 1.7 0.00 0.07 0.07 89 1013.4
20260510010049 68 115 0.9 1.7 0.00 0.07 0.07 89 1013.4
20260510005544 68 137 1.7 2.6 0.00 0.07 0.07 89 1013.3
20260510005042 68 160 0.9 3.5 0.00 0.07 0.07 89 1013.3
20260510004540 68 132 0.9 2.6 0.00 0.07 0.07 88 1013.0
20260510004038 68 123 1.7 1.7 0.00 0.07 0.07 88 1013.2
20260510003534 69 124 1.7 1.7 0.00 0.07 0.07 88 1012.8
20260510003029 69 114 1.7 1.7 0.00 0.07 0.07 87 1013.0
20260510002525 69 108 0.9 1.7 0.00 0.07 0.07 87 1013.2
20260510002022 69 103 0.9 2.6 0.00 0.07 0.07 87 1013.2
20260510001520 69 114 0.9 2.6 0.00 0.07 0.07 87 1013.0
20260510001018 69 126 1.7 2.6 0.00 0.07 0.07 86 1013.0
20260510000513 69 130 0.9 1.7 0.00 0.07 0.07 86 1013.0
20260510000010 70 110 1.7 1.7 0.00 0.07 0.07 86 1012.8
20260509235507 70 113 0.9 1.7 0.00 0.07 0.07 86 1012.8
20260509235003 70 117 0.9 1.7 0.00 0.07 0.07 85 1012.7
20260509234500 70 147 0.0 0.9 0.00 0.07 0.07 85 1012.8
20260509233958 70 118 0.9 1.7 0.00 0.07 0.07 85 1012.5
20260509233455 70 133 0.0 1.7 0.00 0.07 0.07 85 1012.6
20260509232950 70 119 0.9 1.7 0.00 0.07 0.07 84 1012.4
20260509232449 71 116 0.9 1.7 0.00 0.07 0.07 84 1012.5
20260509231944 71 123 0.9 1.7 0.00 0.07 0.07 84 1012.4
20260509231441 71 154 0.9 1.7 0.00 0.07 0.07 83 1012.3
20260509230939 71 119 0.0 1.7 0.00 0.07 0.07 83 1012.2
20260509230436 71 133 1.7 1.7 0.00 0.07 0.07 82 1012.1
20260509225932 71 172 0.0 0.9 0.00 0.07 0.07 82 1012.4
20260509225428 71 129 0.0 0.0 0.00 0.07 0.07 82 1012.4
20260509224925 71 138 0.9 1.7 0.00 0.07 0.07 81 1012.4
20260509224420 72 135 0.0 0.9 0.00 0.07 0.07 81 1012.1
20260509223917 72 136 0.9 1.7 0.00 0.07 0.07 81 1012.2
20260509223414 72 170 1.7 2.6 0.00 0.07 0.07 80 1011.9
20260509222911 72 175 1.7 1.7 0.00 0.07 0.07 80 1012.0
20260509222407 72 153 0.9 1.7 0.00 0.07 0.07 79 1012.1
20260509221902 72 166 1.7 2.6 0.00 0.07 0.07 79 1012.1
20260509221400 72 133 0.9 1.7 0.00 0.07 0.07 78 1012.1
20260509220855 73 129 0.0 1.7 0.00 0.07 0.07 77 1012.1
20260509220351 73 141 0.9 1.7 0.00 0.07 0.07 76 1011.9
20260509215847 73 161 0.9 2.6 0.00 0.07 0.07 76 1011.9
20260509215344 73 103 0.0 1.7 0.00 0.07 0.07 75 1012.0
20260509214841 73 159 0.9 2.6 0.00 0.07 0.07 76 1012.2
20260509214338 73 167 0.9 2.6 0.00 0.07 0.07 74 1011.9
20260509213835 73 120 0.9 1.7 0.00 0.07 0.07 75 1011.9
20260509213330 73 104 0.0 0.9 0.00 0.07 0.07 74 1011.6
20260509212828 73 103 0.0 1.7 0.00 0.07 0.07 74 1011.7
20260509212326 73 186 0.0 1.7 0.00 0.07 0.07 74 1011.7
20260509211821 73 106 0.0 1.7 0.00 0.07 0.07 75 1011.7
20260509211317 73 104 0.0 1.7 0.00 0.07 0.07 75 1011.7
20260509210814 74 180 0.0 1.7 0.00 0.07 0.07 74 1011.5
20260509210312 74 189 1.7 2.6 0.00 0.07 0.07 74 1011.7
20260509205811 74 110 0.0 0.0 0.00 0.07 0.07 73 1011.4
20260509205307 75 106 0.0 1.7 0.00 0.07 0.07 73 1011.6
20260509204802 75 233 0.0 1.7 0.00 0.07 0.07 74 1011.9
20260509204259 74 89 0.0 0.0 0.00 0.07 0.07 76 1011.7
20260509203755 75 62 0.0 0.9 0.00 0.07 0.07 75 1011.6
20260509203253 75 76 0.9 1.7 0.00 0.07 0.07 75 1011.6
20260509202748 74 124 0.0 0.0 0.00 0.07 0.07 75 1011.9
20260509202244 74 124 0.0 1.7 0.00 0.07 0.07 75 1012.0
20260509201739 74 75 0.0 2.6 0.00 0.07 0.07 74 1011.8
20260509201236 74 43 0.0 0.9 0.00 0.07 0.07 77 1012.0
20260509200732 74 66 0.0 1.7 0.00 0.07 0.07 75 1012.0
20260509200227 74 116 0.9 1.7 0.00 0.07 0.07 76 1011.8
20260509195724 73 107 0.9 1.7 0.00 0.07 0.07 75 1012.0
20260509195218 73 146 1.7 2.6 0.00 0.07 0.07 76 1011.9
20260509194713 74 156 0.0 0.9 0.00 0.07 0.07 75 1012.1
20260509194210 74 76 0.0 2.6 0.00 0.07 0.07 77 1011.9
20260509193706 74 75 0.0 1.7 0.00 0.07 0.07 77 1011.9
20260509193201 73 73 1.7 2.6 0.00 0.07 0.07 76 1012.1
20260509192657 73 121 0.9 2.6 0.00 0.07 0.07 76 1012.1
20260509192153 73 271 1.7 3.5 0.00 0.07 0.07 74 1012.1
20260509191648 74 35 0.9 2.6 0.00 0.07 0.07 75 1012.2
20260509191145 74 32 2.6 2.6 0.00 0.07 0.07 76 1012.3